{"data":{"norad_id":48072,"epoch":"2026-05-25T01:11:50.470080Z","epoch_age_seconds":66644,"freshness":"FRESH","line1":"1 48072U 21025AG  26145.04988970 -.00000047  00000+0 -16401-3 0  9991","line2":"2 48072  87.8946 324.8284 0001832  95.4795 264.6543 13.13468405250797","mean_motion":13.13468405,"eccentricity":0.0001832,"inclination_deg":87.8946,"raan_deg":324.8284,"arg_perigee_deg":95.4795,"mean_anomaly_deg":264.6543,"bstar":-0.00016401,"rev_number":25079,"period_min":109.63339464568,"perigee_km":1208.3814379269,"apogee_km":1211.161647617,"semimajor_km":7587.908542772,"source":"CELESTRAK","updated_at":"2026-05-25T13:38:22.394197Z"}}